HAWK-5A

Last updated on Fri Dec 29 2023 00:03:29 GMT+0000 (Coordinated Universal Time)

1 52757U 22057AB 23361.89443972 .00008101 00000+0 38036-3 0 9995 2 52757 97.5629 117.3969 0010178 35.9901 324.2017 15.19853807 88019
UTC large
Height (km)
Speed (km/s)
/
Latitude / Longitude
Inclination (degrees)
Orbital Period (minutes)
Azimuth
Elevation
Range (km)
Doppler Factor

Next 0 passes for location: London (51.5072 / 0.1276)

Sorry there are no passes over London.